Location: Shenandoah County Park
(38.9356°N, 78.4524°W)
Time: 11:39:17
(UTC-05:00)

deb Explorer IX - All Passes

Search period start: 29 January 2023 00:00
Search period end: 08 February 2023 00:00
Orbit: 534 x 1049 km, 38.8° (Epoch: 29 January)

Date Brightness Start Highest point End Pass type
(mag) Time Alt. Az. Time Alt. Az. Time Alt. Az.
29 Jan - 04:23:57 10° S 04:25:41 12° SE 04:27:25 10° ESE visible
29 Jan - 06:07:17 10° SW 06:11:09 46° SSE 06:15:04 10° E visible
29 Jan - 07:53:00 10° W 07:57:03 89° S 08:01:24 10° E daylight
29 Jan - 09:38:55 10° W 09:43:05 67° SSW 09:47:47 10° ESE daylight
29 Jan - 11:25:11 10° W 11:28:56 25° SSW 11:33:07 10° SSE daylight
30 Jan - 03:52:02 10° SSE 03:53:17 11° SE 03:54:32 10° SE visible
30 Jan - 05:34:53 10° SW 05:38:45 42° SSE 05:42:35 10° E visible
30 Jan - 07:20:35 10° W 07:24:37 87° S 07:28:50 10° E daylight
30 Jan - 09:06:32 10° W 09:10:38 70° SSW 09:15:10 10° ESE daylight
30 Jan - 10:52:45 10° W 10:56:28 27° SSW 11:00:35 10° SSE daylight
31 Jan - 03:20:34 10° SSE 03:20:52 10° SE 03:21:10 10° SE night (unlit)
31 Jan - 05:02:26 10° SW 05:06:20 39° SSE 05:10:06 10° E visible
31 Jan - 06:48:08 10° W 06:52:10 86° S 06:56:18 10° E visible
31 Jan - 08:34:08 10° W 08:38:11 73° SSW 08:42:33 10° ESE daylight
31 Jan - 10:20:19 10° W 10:23:59 28° SSW 10:28:02 10° SSE daylight
01 Feb - 04:29:58 10° SW 04:33:53 36° SSE 04:37:36 10° E visible
01 Feb - 06:15:38 10° W 06:19:42 83° S 06:23:46 10° E visible
01 Feb - 08:01:41 10° W 08:05:43 76° S 08:09:58 10° ESE daylight
01 Feb - 09:47:51 10° W 09:51:31 30° SSW 09:55:30 10° SE daylight
02 Feb - 03:57:27 10° SW 04:01:24 33° SSE 04:05:07 10° E visible
02 Feb - 05:43:05 10° WSW 05:47:13 81° S 05:51:15 10° E visible
02 Feb - 07:29:12 10° W 07:33:13 79° S 07:37:23 10° ESE daylight
02 Feb - 09:15:21 10° W 09:19:01 32° SSW 09:22:58 10° SE daylight
03 Feb - 03:24:54 10° SW 03:28:55 31° SSE 03:32:37 10° E visible
03 Feb - 05:10:29 10° WSW 05:14:43 78° S 05:18:45 10° E visible
03 Feb - 06:56:41 10° W 07:00:44 82° S 07:04:48 10° E daylight
03 Feb - 08:42:50 10° W 08:46:32 34° SSW 08:50:26 10° SE daylight
04 Feb - 02:52:18 10° SW 02:56:23 29° SSE 03:00:06 10° E night (unlit)
04 Feb - 04:37:50 10° WSW 04:42:12 75° S 04:46:15 10° E visible
04 Feb - 06:24:06 10° W 06:28:12 84° S 06:32:15 10° E visible
04 Feb - 08:10:18 10° W 08:14:01 37° SSW 08:17:53 10° SE daylight
05 Feb - 02:19:40 10° SSW 02:23:49 28° SSE 02:27:34 10° E night (unlit)
05 Feb - 04:05:09 10° WSW 04:09:39 72° SSE 04:13:44 10° E visible
05 Feb - 05:51:28 10° W 05:55:40 86° S 05:59:41 10° E visible
05 Feb - 07:37:42 10° W 07:41:30 40° SSW 07:45:21 10° SE daylight
05 Feb - 09:26:11 10° SW 09:26:57 10° SW 09:27:43 10° SSW daylight
06 Feb - 01:47:00 10° SSW 01:51:14 26° SSE 01:55:01 10° E night (unlit)
06 Feb - 03:32:24 10° WSW 03:37:04 68° SSE 03:41:14 10° E visible
06 Feb - 05:18:47 10° W 05:23:06 88° S 05:27:08 10° E visible
06 Feb - 07:05:05 10° W 07:08:58 44° SSW 07:12:50 10° SE daylight
06 Feb - 08:52:57 10° SW 08:54:24 12° SW 08:55:52 10° SSW daylight
07 Feb - 01:14:19 10° SSW 01:18:36 25° SSE 01:22:26 10° E night (unlit)
07 Feb - 02:59:36 10° WSW 03:04:27 65° SSE 03:08:43 10° E night (unlit)
07 Feb - 04:46:02 10° W 04:50:31 89° S 04:54:35 10° E visible
07 Feb - 06:32:24 10° W 06:36:24 48° SSW 06:40:17 10° SE visible
07 Feb - 08:19:56 10° WSW 08:21:50 13° SW 08:23:46 10° S daylight
